Regional Weather Roundup
Issued by NWS Wakefield, VA

Home | Current Version | Previous Version | Text Only | Print | Product List | Glossary Off
Versions: 1 2 3 4 5 6 7 8 9 10 11 12 13 14 15 16 17 18 19 20 21 22 23 24 25 26 27

000
ASUS41 KAKQ 240415
RWRAKQ

REGIONAL WEATHER ROUNDUP
NATIONAL WEATHER SERVICE WAKEFIELD VA
1200 AM EDT TUE MAY 24 2016

Note: "fair" indicates few or no clouds below 12,000 feet with no
significant weather and/or obstructions to visibility. * = Denotes
station may not report precipitation (e.g., rain,snow,etc.),
thunder or fog.

VAZ042-051-052>054-056-240500-
NORTHERN VIRGINIA

CITY           SKY/WX    TMP DP  RH WIND       PRES   REMARKS
WASH NATIONAL  MOCLDY    60  57  89 W3        29.96F
DULLES         MOCLDY    56  55  97 S3        29.97F
FORT BELVOIR   MOCLDY    57  55  94 CALM      29.95F
QUANTICO       FAIR      59  57  93 NW10      29.97F
FREDERICKSBRG* FAIR      57  57 100 CALM      29.97F
STAFFORD*      MOCLDY    56  55  95 CALM      30.02F
WARRENTON      FAIR      57  52  83 CALM      29.98S
CULPEPER*      FAIR      56  56  97 CALM      29.99F
MANASSAS*      MOCLDY    55  55 100 SE3       29.98S
LEESBURG*      FAIR      61  59  94 SW6       29.97F
WINCHESTER     CLOUDY    59  54  82 CALM      29.99R
FRONT ROYAL*   CLOUDY    55  54  94 S7        29.98S
LURAY*         LGT RAIN  59  54  82 W6        30.02F
$$

VAZ048-049-060>072-079>083-240500-
CENTRAL AND SOUTH CENTRAL VIRGINIA

CITY           SKY/WX    TMP DP  RH WIND       PRES   REMARKS
RICHMOND       CLOUDY    59  55  87 W5        29.97S
CHESTERFIELD*  FAIR      59  46  63 NW7       29.99S
PETERSBURG*    FAIR      61  56  81 W5        29.98S
HANOVER        FAIR      57  54  89 CALM      29.99S
TAPPAHANNOCK*  FAIR      57  57  99 W5        29.96F
QUINTON*       FAIR      56  55  95 CALM      29.96S
CHARLOTTSVILLE FAIR      58  55  90 CALM      30.00F
GORDONSVILLE*  FAIR      54  54 100 W5        29.99F
ORANGE*        FAIR      55  55 100 CALM      30.01F
LOUISA*        FAIR      61  57  88 CALM      29.98F
BUMPASS*       FAIR      55  55  99 CALM      29.98F
FARMVILLE*     FAIR      56  56 100 CALM      30.00S
CREWE*         FAIR      56  56 100 CALM      30.01R
FORT PICKETT*  NOT AVBL
CHASE CITY*    MOCLDY    55  53  94 CALM      30.02F
CLARKSVILLE*   FAIR      54  52  94 CALM      30.02S
SOUTH HILL*    MOCLDY    58  52  81 CALM      30.07S
LAWRENCEVILLE* CLOUDY    57  54  88 W6        30.00F
EMPORIA*       CLOUDY    55  52  88 W3        30.01F
$$

VAZ088>098-240500-
SOUTHEAST VIRGINIA

CITY           SKY/WX    TMP DP  RH WIND       PRES   REMARKS
NORFOLK        MOCLDY    58  55  90 SW5       29.96S
VIRGINIA BEACH MOCLDY    61  52  72 SW5       29.95S
NORFOLK NAVAL  MOCLDY    59  55  87 W5        29.98R
WEST POINT*    FAIR      56  56  97 CALM      29.98S
SALUDA*        FAIR      58  56  94 CALM      29.95F
NEWPORT NEWS   FAIR      59  56  89 NW5       29.97S
LANGLEY AFB    FAIR      60  56  87 NW5       29.96S
FORT EUSTIS    FAIR      59  55  86 W1        29.95S
WILLIAMSBURG*  FAIR      59  57  94 CALM      29.98R
HR EXEC AP*      N/A     55  54  94 CALM      30.00R
FRANKLIN*      FAIR      58  54  88 CALM      29.99R
US460-WAKEFLD  MOCLDY    57  55  93 CALM      29.98R
$$

VAZ020-022-025-037-045-240500-
WEST CENTRAL AND SOUTHWEST VIRGINIA

CITY           SKY/WX    TMP DP  RH WIND       PRES   REMARKS
STAUNTON*      MOCLDY    56  56 100 N5        30.07R
WAYNESBORO*    FAIR      53  52  96 CALM      30.04S
HOT SPRINGS VA FAIR      52  49  87 NW9       30.09S
LYNCHBURG      MOCLDY    57  54  89 CALM      30.03F
DANVILLE       FAIR      52  51  97 SW5       30.04S
SOUTH BOSTON*  FAIR      53  51  95 CALM      30.03S
MARTINSVILLE   FAIR      47  47 100 CALM      30.08S FOG
ROANOKE        FAIR      58  53  84 N6        30.06F
BLACKSBURG     MOCLDY    55  53  94 CALM      30.12S
DUBLIN*        FAIR      52  51  97 S3        30.11S
MARION*        FAIR      50  48  93 CALM      30.14S
HILLSVILLE*    FAIR      52  50  93 W5        30.10S
RICHLANDS*     FAIR      54  34  46 SE3       30.12S
WISE*          FAIR      57  43  58 CALM      30.12F
ABINGDON*      FAIR      53  50  90 CALM      30.11R
$$

MDZ021>025-VAZ099-100-240500-
SOUTHERN MARYLAND AND THE DELMARVA PENINSULA

CITY           SKY/WX    TMP DP  RH WIND       PRES   REMARKS
PATUXENT RIVER CLOUDY    59  55  87 W8        29.95R
BAY BRIDGE APT CLOUDY    61  55  82 NW3       29.96R
LEONARDTOWN    CLOUDY    57  54  88 W3        29.96S
DOVER          CLOUDY    59  53  79 SW5       29.94S
GEORGETOWN     CLOUDY    58  55  90 CALM      29.93F
EASTON         CLOUDY    59  59 100 CALM      29.99S
CAMBRIDGE        N/A     55  55 100 CALM      29.95R
SALISBURY      LGT RAIN  57  54  89 CALM      29.93F
OCEAN CITY     MOCLDY    56  53  90 CALM      29.94F
WALLOPS ISLAND FAIR      58  53  84 CALM      29.94S
ACCOMACK*      FAIR      55  52  88 CALM      29.94F
$$

NCZ012>017-030>032-240500-
NORTH CENTRAL AND EASTERN NORTH CAROLINA

CITY           SKY/WX    TMP DP  RH WIND       PRES   REMARKS
ROANOKE RAPIDS FAIR      54  52  94 SW3       30.01S
RALEIGH        PTCLDY    54  52  93 CALM      30.05R
ELIZABETH CITY CLOUDY    57  55  93 W6        29.98S
AHOSKIE*       MOCLDY    55  53  94 CALM      30.01R
EDENTON*       CLOUDY    61  51  70 W5        30.00S
CURRITUCK*     MOCLDY    57  55  95 CALM      29.98S
KILL DEVIL HLS MOCLDY    59  50  73 CALM      29.97S
MANTEO         PTCLDY    59  56  87 N6        29.98S
CAPE HATTERAS  CLEAR     61  53  75 NW9       29.99S
TARBORO*       MOCLDY    51  51  98 CALM      30.03R FOG
GOLDSBORO      CLEAR     54  54 100 SW2       30.02S
WASHINGTON     CLEAR     55  53  94 W5        30.01S
GREENVILLE     CLEAR     52  52 100 CALM      30.03S FOG
NEW BERN       CLEAR     56  53  90 S5        30.04R
WILMINGTON     PTCLDY    56  53  90 CALM      30.05R
$$

VAZ048-240500-
ELSEWHERE

CITY           SKY/WX    TMP DP  RH WIND       PRES   REMARKS
HARRISBURG PA  CLOUDY    58  55  90 W7        29.94S
BALTIMORE      LGT RAIN  58  56  93 W14       29.93F
ANNAPOLIS      CLOUDY    60  56  86 W5        29.94S
ANDREWS AFB    DRIZZLE   59  57  94 NW8       29.96R
PHILADELPHIA   CLOUDY    60  52  74 S7        29.94S
HENDERSON NC   CLEAR     53  49  85 CALM      30.03S
GREENSBORO     PTCLDY    57  53  86 CALM      30.05S
ROCKY MOUNT    PTCLDY    51  51 100 CALM      30.03R
$$

VAZ100-240500-
MARINE

STATION/POSITION TIME  TEMP    WIND        PRES    WAVE   SWELL
                       AIR SEA DIR/SP/G            HT/PER HT/PER
                 (UTC) (F)     (DEG/KT/KT) (MB)    (FT/S) (FT/S)
BRANDYWINE LGT   0300   58                 1013.6F
CAPE MAY NJ      0300      64                N/A
LEWES DE         0300      60                N/A
15NM E FENWICK I 0350   56 55              1013.5F   4/ 8
OCEAN-CITY-INLET 0300      59                N/A
WACHAPREAGUE VA  0300      63                N/A
THOMAS POINT MD  0400   60 61  280/  9/ 12 1015.2R
GOOSES REEF MD   0400   61 61  330/  6/  6 1015.3R   1/ 2
COVE POINT MD    0300   60                 1013.7F
SOLOMONS ISLAND  0300      62                N/A
BISHOPS HEAD MD  0300      63                N/A
PINEY POINT MD   0300          340/  9/ 10   N/A
POTOMAC MD       0400   62 62  280/  6/  8 1013.0F   0
CAMBRIDGE MD     0300      63                N/A
LEWISETTA VA     0300      63                N/A
RAPPAHANNOCK LGT 0300                      1014.7F
STINGRAY PT      0400   63 63  290/  4/  6 1014.5F   0
YORK RVR RNG VA  0300   62                 1013.8R
YORKTOWN VA      0300      65                N/A
JAMESTOWN VA     0400   61 66  250/  4/  4   N/A     0
DOMINION TERM VA 0300   63                 1014.5F
KIPTOPEKE VA     0300      63                N/A
CHES BAY BRIDGE  0300      62                N/A
CAPE HENRY VA    0300   59                   N/A
CHESAPEAKE LGHT  0300   59     350/  5/  6 1015.1R
WILLOUBY STN VA  0300   62                 1015.3F
CAPE HENRY BUOY  0312      59                N/A     5/10   2/11
1ST LANDING BUOY 0400   60 63  220/  6/  8 1014.5S   2/ 5
CAPE CHARLES BUO 0326      59                N/A     4/10   3/10
OFFSHORE WE BUOY 0321      58                N/A     5/ 8   5/ 8
64NM E OF VA BCH 0350   57 69  330/ 14/ 17 1013.3R   7/ 9   5/ 9
DUCK PIER NC     0300      62                N/A
44100 DUCK FRF   0324      57                N/A     5/ 9   2/11
44056 DUCK FRF   0311      62                N/A     5/ 9   2/11
OREGON INLET NC  0300      65                N/A
HATTERAS NC      0300      68                N/A
DIAMOND SHLS NC  0350   63 66  330/ 14/ 16 1015.4R   4/ 9   3/ 9
CAPE LOOKOUT C1F1C2F2C3F3C4F4C5F5C6F6C7F7C8M1C9!



USA.gov is the U.S. government's official web portal to all federal, state and local government web resources and services.